STARLINK-3357, 51150

Orbit data source: Space-Track

STARLINK-3357, 51150 is a payload satellite owned by SpaceX/Seattle (US) in LEO that was launched on Wed, 19 Jan 2022 UTC via an FALCON 9 launch vehicle from the Air Force Eastern Test Range (AFETR). Payload-class satellites include a variety of spacecraft equipped with specific instruments for various scientific and technological missions. These include communications satellites like Starlink; space stations such as the ISS; scientific satellites like the Hubble; Earth observation satellites from companies like Planet Labs, Umbra, and HawkEye 360; GPS; miniature CubeSats for education and research; and military/defense satellites.

Loading next visibility...
Identifier
51150, 2022-005AY
Orbit
LEO
Country
Flag of USUS
Related business
Manufacturer
SpaceX/Seattle
Mission
Operational Commercial Communications
Bus & Motor
STARLINK, Unknown motor
Mass
297 kg wet, ~275 kg dry
Launch date (UTC)
2022-01-19 (4 years ago)
Launch vehicle
FALCON 9
Launch site
Air Force Eastern Test Range (AFETR)
Object type
Payload
Rocket body
Debris
Shape & HBR
Box + 1 Pan, 10.1 m
Radar Cross Section
13.562 m², Large (>1 m²)

Expand to show TLE details & history
Last TLE update: 10 hours ago

TLE from 10 hours ago
0 STARLINK-3357
1 51150U 22005AY  26094.29619176  .00012606  00000-0  80868-3 0  9991
2 51150  53.2166 183.7823 0001563  92.6846 267.4325 15.08841902232610
Epoch: 2026-04-04T07:06Z
TLE epoch observation values (Epoch: 2026-04-04T07:06:30.968Z)
Latitude
-0.00001°
Longitude
-115.46474°
Altitude
540.684 km
Speed
7.593 km/s
True Right ascension
12h 15m 07s
True Declination
0° 00' 00"
Sunlit
Object was in full shadow at epoch
Visualization orbit readout
Latitude
Unknown
Longitude
Unknown
Altitude
Unknown
Speed
Unknown
Apparent Right ascension
Unknown
Apparent Declination
Unknown
Sunlit
N/A
Visualization observer readout
Local Sidereal Time
22:47:30
Azimuth
Unknown
Elevation
Unknown
Doppler factor
Unknown
Orbital elements
Apogee altitude
541.064 km
Perigee altitude
538.901 km
Semi-major axis
6,918.12 km
Eccentricity
0.00016
Inclination
53.2166°
RAAN
183.7823°
Arg. of periapsis
92.6846°
True anomaly
267.41461°
Mean anomaly
267.4325°
Eccentric anomaly
267.42355°
Mean motion
3.77191 °/min
Orbital period
95.44 mins
BSTAR
0.00080868
Loading maneuver chart data...
Computing Atmospheric mass density...
Loading historical data...
Loading historical data...
Loading historical data...
Loading historical data...
Loading historical data...
Loading historical data...
Loading historical data...

Documentation

Showing up to 5 results
|